COMSATBW-1

Last updated on May 20, 2019, 3:09 a.m. UTC

1 35943U 09054B   19139.82005133  .00000015  00000-0  00000+0 0  9992
2 35943   0.0179 329.8308 0003680 102.8756 162.7223  1.00270436 35332
UTC
Height (km)
Latitude
Longitude
Inclination
Orbital Period
UTC large
Height (km)
Speed (km/s)
/
Latitude / Longitude
Inclination (degrees)
Orbital Period (minutes)
Azimuth
Elevation
Range (km)
Doppler Factor
iOS Compass Heading
iOS Angle

Next 30 passes for location: Hong Kong

Rise time Rise Azimuth (degrees) Set time Set Azimuth (degrees) Duration Max altitude (degrees)

No matching passes for this satellites